Погода в Сардобе

Узбекистан     40°32′36″N   68°24′40″E
темп.,
°C
ветер,
м/с
пор.,
м/с
влажн.,
%
обл.,
%
осадки,
мм/ч
давл.,
гПа
погр.,
м
23 мая, пн
пн2323:00+15ююз22519 0.0 101822
02:00+14ююз115332 0.0 101611
05:00+13в22569 0.0 101615
08:00+17вюв23470 0.0 1016429
11:00+21вюв34430 0.0 10141645
14:00+24в34320 0.0 10122178
17:00+25св43310 0.0 10092091
20:00+21св34450 0.0 100963
24 мая, вт
вт2423:00+19св33490 0.0 100843
02:00+18всв22500 0.0 100722
05:00+17всв22530 0.0 100721
08:00+21вюв23440 0.0 1007344
11:00+26в45310 0.0 10051174
14:00+30всв44240 0.0 10041517
17:00+31св33220 0.0 10031413
20:00+26ссв33310 0.0 100319
25 мая, ср
ср2523:00+24св23360 0.0 100524
02:00+22св114010 0.0 100511
05:00+22всв114476 0.0 100611
08:00+26вюв3534100 0.0 1007312
11:00+32вюв44274 0.0 1007996
14:00+36зсз11160 0.0 10062024
17:00+36ссз22140 0.0 10062026
20:00+30св33270 0.0 100728
26 мая, чт
чт2623:00+28ссв22300 0.0 100816
02:00+26ссв11340 0.0 100711
05:00+23з34380 0.0 100952
08:00+27сз343235 0.0 1011383
11:00+30ссз66282 0.0 10111180
14:00+33ссз662450 0.0 10101799
17:00+33сз5423100 0.0 10102198
20:00+28ссз5103396 0.0 1010316
27 мая, пт
пт2723:00+26с5123181 0.0 1011439
02:00+23з3432100 0.0 101265
05:00+22зсз3634100 0.1 1012212
08:00+22зсз4433100 0.1 1014531
11:00+27сз45275 0.1 10121230
14:00+30сз44245 0.0 10111986
17:00+30сз4424100 0.0 10112496
20:00+26зсз2329100 0.0 101260